Wind_Speed
10 10 10 9 9 9 8 7 7 6 5 5 5 5 6 7 5 5 5 5 5 6 6 6 6 6 6 5 6 5 5 5 6 6 6 6 7 7 7 6 6 6 6
10 10 10 10 9 9 8 7 7 7 7 6 6 5 6 6 7 7 6 6 7 7 7 6 6 7 7 7 7 7 7 7 7 7 7 8 8 8 8 8 8 7 7
11 11 11 10 10 9 8 8 8 7 7 6 6 6 5 6 6 7 7 6 7 7 7 7 7 7 8 8 7 8 8 8 9 9 8 9 9 9 10 10 10 9 9
12 12 11 11 10 9 8 8 7 7 7 6 6 6 5 5 5 6 7 6 6 7 7 7 7 8 8 8 8 9 9 9 9 10 10 10 10 10 10 10 11 11 11
12 12 12 11 10 9 8 8 8 7 7 7 6 6 6 6 6 6 7 7 7 8 8 8 8 8 9 9 10 10 10 10 10 10 11 12 12 12 12 12 12 12 13
13 12 11 11 11 10 9 9 8 7 7 7 7 7 6 6 6 6 6 7 7 8 8 8 8 8 9 9 9 10 10 11 11 11 11 12 13 13 13 14 14 14 14
12 13 12 12 11 11 10 9 8 8 7 7 7 6 6 6 6 6 7 7 7 7 8 8 9 8 8 8 9 9 10 10 11 11 12 12 13 13 14 14 15 16 16
12 12 12 12 12 11 10 9 9 8 8 8 7 7 7 6 6 6 6 6 7 7 7 7 8 8 9 9 9 9 9 10 11 11 12 12 12 13 14 15 16 17 17
13 12 12 12 11 11 10 10 9 8 8 7 7 7 7 7 6 6 5 6 6 6 6 6 7 7 8 9 9 10 10 10 10 11 11 11 11 12 12 14 15 16 17
12 12 12 12 12 11 10 9 9 8 7 6 6 6 6 6 6 5 5 5 5 6 6 7 7 7 7 8 8 8 9 10 10 10 10 11 11 12 13 14 14 15 16
12 13 12 12 12 10 10 9 8 7 6 6 6 6 6 5 5 5 4 4 4 5 5 6 7 6 7 7 7 8 9 9 9 10 11 11 12 12 13 13 13 14 15
11 12 12 12 12 11 10 9 8 7 6 6 5 5 5 5 5 5 4 4 5 5 5 6 6 6 6 7 7 8 8 8 9 9 10 11 12 13 13 13 14 14 15
11 11 11 11 12 11 10 9 8 8 7 6 5 5 5 5 5 5 5 5 5 5 6 6 6 6 6 7 7 8 8 8 8 9 10 10 11 12 13 13 14 15 16
12 12 11 11 11 11 10 9 8 8 7 7 6 6 6 5 5 5 5 6 6 6 6 5 5 6 7 7 8 8 8 9 9 9 10 11 11 12 13 14 15 15 16
13 12 12 12 11 11 9 8 8 8 8 7 7 6 6 6 6 5 5 6 6 6 6 6 6 6 7 8 8 9 9 9 10 10 11 12 12 13 14 15 16 17 17
13 12 13 12 12 11 10 9 9 8 8 7 7 7 6 6 6 6 6 6 5 6 6 6 7 8 8 8 9 9 10 10 10 11 11 12 13 14 14 15 16 17 18
13 12 13 13 12 12 11 11 10 9 9 8 8 8 8 7 7 7 7 7 7 7 7 7 8 9 9 9 10 10 10 11 11 12 12 13 13 14 15 16 17 17 18
13 13 13 13 13 12 11 11 11 11 11 10 9 9 9 8 8 8 8 8 8 8 9 9 10 10 10 11 11 12 12 13 13 13 14 14 15 16 16 17 19 19 20
14 13 14 14 13 13 12 12 12 11 11 11 10 10 10 10 9 9 9 10 10 10 10 10 11 12 12 13 13 13 14 15 15 16 16 17 18 18 19 20 21 21 22
14 14 15 14 14 14 13 13 12 12 11 11 11 11 11 11 11 11 11 11 12 11 12 12 13 14 14 14 15 15 16 17 17 18 19 20 21 22 22 22 23 24 25
15 15 15 14 15 15 14 14 13 13 13 13 12 12 12 12 12 13 13 13 13 13 14 14 15 15 16 16 17 18 19 19 20 21 22 23 23 24 25 25 26 27 28
16 15 14 14 14 14 14 14 14 14 13 13 14 14 14 15 15 15 15 14 14 15 16 16 17 17 18 19 20 20 21 22 22 23 24 25 25 26 26 27 28 29 29
14 14 15 14 15 15 14 14 14 14 14 14 15 15 16 16 17 17 16 16 17 18 19 19 20 20 21 21 22 23 23 24 25 26 27 27 28 29 30 30 31 31 32
15 15 15 15 15 15 14 14 14 14 15 15 16 16 17 18 18 18 18 19 19 20 21 22 22 23 23 24 25 25 26 27 28 29 30 30 31 32 32 33 34 34 35
16 16 16 16 16 15 15 16 16 16 17 18 18 18 18 19 19 20 21 22 22 23 23 24 24 25 26 27 28 29 30 31 31 32 34 33 33 34 34 35 36 36 37
16 16 16 16 16 16 17 17 17 18 19 20 20 19 20 20 22 22 23 24 24 25 25 26 27 28 29 30 31 32 33 34 35 35 36 36 36 37 36 37 38 39 39
Wind_Direction
238 239 243 247 249 251 256 262 264 261 261 265 269 269 271 272 271 281 272 264 262 261 261 265 267 268 270 270 273 273 268 263 258 260 258 253 249 249 251 258 262 259 254
234 234 239 244 248 251 253 256 257 262 263 264 269 268 270 272 270 274 271 265 263 259 259 266 271 270 268 270 273 272 271 266 260 263 261 257 253 250 250 253 254 255 253
239 236 237 240 244 247 251 253 254 260 259 260 260 261 266 270 267 265 266 260 262 263 264 265 272 271 269 268 269 271 273 270 264 262 261 258 258 255 255 253 251 252 252
236 234 234 237 240 242 247 248 249 254 255 253 254 256 263 269 271 269 268 262 263 266 263 265 269 270 271 270 269 269 272 272 267 262 261 260 256 257 257 254 251 251 251
233 233 232 235 235 238 241 244 248 252 250 249 249 253 261 270 273 274 270 266 266 267 263 264 266 271 275 273 271 274 275 273 271 263 260 258 255 255 253 253 254 252 253
230 228 230 230 232 235 235 239 243 247 246 246 249 252 257 269 274 276 271 266 266 265 265 266 267 270 274 275 272 271 271 274 270 267 260 257 256 254 254 254 253 253 255
225 228 230 230 230 229 230 236 238 241 241 243 245 249 258 264 270 270 269 267 267 269 271 272 272 270 276 277 277 276 273 272 270 268 262 257 257 254 253 254 254 254 256
226 228 229 227 226 226 228 232 235 238 239 240 247 251 255 261 267 268 272 271 269 274 281 283 278 274 276 277 276 277 275 271 269 267 263 257 257 256 256 258 258 258 257
225 225 224 222 223 225 226 231 233 232 230 237 243 245 250 255 263 267 271 272 274 279 283 289 288 281 276 276 275 274 274 273 269 265 263 260 259 261 262 260 261 261 261
219 220 219 218 219 220 225 227 228 229 229 235 238 238 243 252 258 264 273 272 277 281 285 287 287 279 277 277 275 275 277 276 272 268 264 263 264 264 264 265 264 264 264
215 216 217 216 217 218 220 220 221 225 228 232 233 231 236 246 251 261 270 277 280 287 290 287 285 279 278 281 283 280 279 277 273 270 268 266 266 267 268 269 267 268 269
210 211 213 213 215 217 216 216 217 222 228 230 227 228 236 247 253 264 270 275 281 289 294 295 290 281 280 287 290 290 287 280 277 276 274 271 270 268 267 271 271 272 273
209 208 209 207 210 212 213 213 218 220 222 227 231 237 239 250 256 261 268 273 282 289 293 296 291 286 285 292 296 296 291 285 285 280 279 278 274 271 271 273 273 274 273
207 204 201 203 204 206 208 212 218 221 225 231 240 245 243 249 256 262 268 275 281 286 289 290 285 282 285 289 292 294 292 290 288 285 282 280 279 277 276 276 276 277 276
206 202 200 200 203 207 210 214 220 225 230 237 245 248 246 250 257 267 274 276 281 283 281 283 285 283 285 288 289 290 293 294 293 292 287 283 281 279 279 278 277 278 277
202 201 201 205 208 212 216 221 224 229 234 240 245 246 249 253 260 272 276 279 283 284 282 284 285 285 284 286 289 291 293 294 294 293 292 289 286 283 281 280 280 279 278
203 207 210 211 213 217 221 226 229 234 237 242 248 253 255 260 264 269 273 276 279 282 283 284 283 283 283 283 284 287 291 295 295 294 293 293 290 288 284 283 283 282 280
210 214 215 216 219 221 224 229 234 238 240 246 251 253 256 260 265 269 271 275 279 280 281 284 286 286 286 285 285 286 289 292 293 292 292 293 293 291 288 287 285 284 284
215 219 220 220 223 226 230 235 240 242 243 248 252 254 256 260 265 270 272 276 279 281 283 284 285 286 286 286 287 289 289 289 289 289 290 290 291 290 289 288 286 285 285
221 224 222 224 229 232 235 239 243 245 249 252 255 255 256 259 264 270 273 278 278 279 282 283 284 286 287 288 290 290 290 290 290 289 288 289 289 289 288 287 287 286 286
224 223 225 229 232 235 237 240 243 247 251 253 253 255 258 262 266 271 275 277 278 279 281 283 284 285 285 287 290 291 291 291 290 289 289 289 288 288 288 287 287 287 286
223 223 226 229 232 234 236 240 243 249 251 253 258 259 261 264 268 272 274 275 277 280 282 284 285 285 285 286 288 288 288 288 289 288 288 288 288 288 288 288 288 288 287
226 225 228 231 234 237 239 240 242 249 254 259 262 264 265 268 270 271 273 276 280 282 283 284 284 285 285 286 286 286 286 287 287 288 288 288 288 288 288 288 288 287 286
230 231 234 237 239 240 242 245 250 254 258 263 266 268 270 271 271 273 275 278 280 282 284 285 285 286 286 286 286 286 286 287 288 288 288 288 288 288 288 288 288 287 287
234 235 237 239 242 246 250 253 255 257 261 265 267 269 272 272 275 276 276 278 280 282 283 284 286 286 286 286 286 287 288 289 289 290 290 290 289 289 289 289 288 288 287
236 238 241 244 248 252 256 258 259 261 264 267 269 270 273 274 276 278 279 280 282 283 284 284 285 286 286 286 286 287 288 288 289 289 289 290 290 289 289 289 289 288 288
Height
5885 5886 5886 5887 5888 5888 5889 5889 5889 5889 5890 5890 5890 5890 5890 5890 5890 5890 5890 5890 5891 5891 5891 5891 5891 5891 5890 5890 5890 5890 5890 5890 5891 5891 5891 5891 5891 5891 5892 5892 5892 5892 5891
5883 5884 5885 5885 5886 5887 5887 5888 5888 5888 5889 5889 5889 5889 5889 5889 5889 5889 5889 5889 5889 5889 5889 5889 5889 5889 5889 5889 5889 5889 5889 5889 5889 5889 5889 5889 5889 5890 5890 5890 5890 5890 5891
5881 5882 5883 5884 5884 5885 5886 5886 5887 5887 5887 5888 5888 5888 5888 5888 5888 5887 5887 5887 5887 5887 5887 5887 5887 5887 5887 5887 5887 5887 5887 5887 5887 5887 5887 5887 5888 5888 5888 5888 5889 5889 5889
5878 5880 5881 5882 5883 5883 5884 5885 5885 5886 5886 5886 5886 5886 5886 5886 5886 5886 5886 5886 5886 5885 5885 5885 5885 5885 5885 5885 5885 5885 5885 5885 5885 5885 5885 5885 5885 5886 5886 5886 5886 5887 5887
5876 5877 5879 5880 5880 5881 5882 5883 5884 5884 5884 5885 5885 5885 5885 5885 5885 5884 5884 5884 5884 5884 5883 5883 5883 5883 5883 5883 5883 5883 5883 5882 5882 5882 5882 5882 5883 5883 5883 5884 5884 5884 5885
5873 5875 5876 5877 5878 5880 5880 5881 5882 5882 5883 5883 5883 5883 5883 5883 5883 5883 5882 5882 5882 5882 5881 5881 5881 5881 5881 5880 5880 5880 5880 5880 5880 5880 5879 5879 5880 5880 5880 5881 5881 5881 5882
5871 5873 5874 5875 5876 5878 5879 5880 5880 5881 5881 5881 5882 5882 5882 5882 5881 5881 5881 5881 5880 5880 5880 5879 5879 5879 5878 5878 5878 5878 5877 5877 5877 5877 5876 5876 5877 5877 5877 5877 5878 5878 5879
5869 5870 5872 5873 5874 5876 5877 5878 5878 5879 5879 5880 5880 5880 5880 5881 5880 5880 5879 5879 5879 5878 5878 5877 5877 5876 5876 5876 5876 5875 5875 5875 5874 5874 5874 5873 5874 5874 5874 5874 5874 5874 5875
5866 5868 5870 5871 5872 5874 5875 5876 5876 5877 5877 5878 5878 5879 5879 5879 5878 5878 5878 5878 5877 5877 5876 5875 5875 5874 5874 5874 5873 5873 5872 5872 5872 5871 5871 5871 5871 5871 5871 5871 5870 5870 5871
5864 5866 5867 5868 5870 5871 5873 5874 5874 5875 5875 5876 5876 5877 5877 5877 5877 5877 5877 5876 5876 5875 5874 5874 5873 5873 5872 5872 5871 5871 5870 5869 5869 5868 5868 5868 5868 5868 5868 5867 5867 5867 5866
5862 5864 5865 5866 5868 5869 5871 5872 5873 5873 5874 5874 5874 5875 5875 5875 5875 5875 5875 5875 5874 5873 5873 5872 5871 5871 5870 5870 5869 5868 5868 5867 5866 5866 5865 5865 5865 5865 5865 5864 5864 5863 5863
5860 5861 5863 5864 5866 5867 5868 5870 5871 5871 5872 5872 5873 5873 5873 5874 5874 5874 5873 5873 5873 5872 5871 5870 5870 5869 5868 5868 5867 5866 5865 5864 5864 5863 5863 5862 5862 5862 5861 5861 5860 5860 5859
5858 5859 5861 5862 5864 5865 5866 5868 5869 5869 5870 5871 5871 5872 5872 5872 5872 5872 5872 5871 5871 5870 5870 5869 5868 5867 5867 5866 5865 5864 5863 5862 5861 5861 5860 5860 5859 5858 5858 5857 5857 5856 5855
5856 5857 5859 5860 5862 5863 5864 5866 5867 5868 5868 5869 5869 5870 5870 5870 5870 5870 5870 5869 5869 5868 5868 5867 5866 5866 5865 5864 5863 5862 5861 5860 5859 5858 5857 5857 5856 5855 5854 5854 5853 5852 5851
5853 5855 5857 5858 5860 5862 5863 5864 5865 5866 5866 5867 5867 5867 5868 5868 5868 5868 5868 5867 5867 5866 5866 5865 5864 5863 5862 5862 5861 5860 5859 5857 5856 5855 5854 5853 5853 5852 5851 5850 5849 5848 5847
5852 5853 5855 5857 5858 5860 5861 5862 5863 5864 5864 5865 5865 5865 5866 5866 5866 5866 5865 5865 5865 5864 5863 5863 5862 5861 5860 5859 5858 5857 5856 5855 5854 5853 5851 5850 5849 5848 5847 5846 5845 5844 5843
5850 5851 5853 5854 5856 5857 5859 5860 5861 5861 5862 5862 5863 5863 5863 5863 5863 5863 5863 5863 5862 5862 5861 5860 5859 5858 5858 5857 5856 5854 5853 5852 5851 5849 5848 5847 5845 5844 5843 5841 5840 5839 5838
5848 5849 5851 5852 5854 5855 5856 5857 5858 5859 5860 5860 5860 5860 5861 5861 5861 5861 5860 5860 5859 5859 5858 5857 5856 5855 5854 5853 5852 5851 5850 5849 5847 5846 5844 5843 5841 5840 5838 5837 5835 5834 5832
5845 5847 5848 5850 5851 5853 5854 5855 5855 5856 5857 5857 5857 5858 5858 5858 5858 5858 5857 5857 5856 5856 5855 5854 5853 5852 5851 5850 5849 5847 5846 5845 5843 5842 5840 5839 5837 5835 5833 5832 5830 5828 5827
5842 5844 5845 5847 5848 5850 5851 5851 5852 5853 5853 5854 5854 5854 5855 5855 5855 5854 5854 5853 5852 5852 5851 5850 5849 5848 5847 5846 5845 5843 5842 5840 5839 5837 5835 5833 5831 5830 5828 5826 5824 5822 5820
5839 5841 5842 5843 5845 5846 5847 5848 5849 5850 5850 5850 5851 5851 5851 5851 5851 5850 5850 5849 5848 5848 5847 5846 5845 5844 5843 5842 5840 5838 5837 5835 5833 5832 5830 5828 5825 5823 5821 5819 5817 5815 5813
5836 5837 5839 5840 5841 5842 5843 5844 5845 5846 5846 5847 5847 5847 5847 5847 5847 5846 5846 5845 5844 5843 5842 5841 5841 5839 5838 5836 5835 5833 5831 5829 5827 5826 5823 5821 5819 5817 5814 5812 5810 5808 5805
5833 5834 5835 5836 5838 5839 5840 5840 5841 5842 5842 5843 5843 5843 5842 5842 5842 5841 5841 5840 5839 5838 5837 5836 5835 5833 5832 5830 5828 5827 5825 5823 5821 5818 5816 5814 5811 5809 5807 5804 5802 5799 5796
5829 5830 5832 5833 5834 5835 5836 5836 5837 5838 5838 5838 5838 5838 5838 5838 5837 5836 5836 5835 5834 5833 5831 5830 5829 5827 5825 5823 5821 5819 5817 5815 5813 5810 5807 5806 5803 5800 5798 5795 5792 5789 5786
5826 5827 5828 5829 5830 5831 5832 5832 5833 5833 5833 5834 5834 5833 5833 5832 5832 5830 5830 5829 5828 5826 5825 5823 5822 5820 5818 5815 5813 5811 5809 5807 5805 5802 5798 5796 5794 5791 5788 5785 5782 5778 5776
5822 5823 5824 5825 5826 5827 5827 5828 5828 5828 5828 5828 5828 5828 5827 5826 5826 5824 5824 5822 5821 5820 5818 5816 5815 5813 5810 5807 5805 5802 5800 5797 5795 5793 5788 5785 5783 5780 5778 5775 5771 5767 5764